This is the latest recevied weather packets stored in our database for station/object KF0TNT. If no packets are shown the sender has not sent any weather packets the latest 10 day(s).
| Time | Temp. | Humidity | Pressure | Rain* | Wind** | Luminosity | Snow |
|---|---|---|---|---|---|---|---|
| 1777863685 | 12.22° C | 33% | 1016.3 hPa | 0 mm | - | 0 W/m² | - |
| 1777863382 | 12.22° C | 33% | 1016.3 hPa | 0 mm | - | 0 W/m² | - |
| 1777863079 | 12.78° C | 33% | 1016.3 hPa | 0 mm | - | 0 W/m² | - |
| 1777862776 | 12.78° C | 32% | 1016.3 hPa | 0 mm | - | 0 W/m² | - |
| 1777862472 | 13.33° C | 32% | 1016.3 hPa | 0 mm | - | 0 W/m² | - |
| 1777862169 | 13.33° C | 31% | 1016.3 hPa | 0 mm | - | 0 W/m² | - |
| 1777861865 | 13.33° C | 31% | 1016.5 hPa | 0 mm | - | 0 W/m² | - |
| 1777861562 | 13.89° C | 31% | 1016.3 hPa | 0 mm | - | 0 W/m² | - |
| 1777861258 | 13.89° C | 30% | 1016.1 hPa | 0 mm | - | 0 W/m² | - |
| 1777860955 | 13.89° C | 30% | 1016 hPa | 0 mm | - | 0 W/m² | - |
| 1777860652 | 13.89° C | 30% | 1016.4 hPa | 0 mm | - | 0 W/m² | - |
| 1777860349 | 13.89° C | 29% | 1016.6 hPa | 0 mm | - | 0 W/m² | - |
| 1777860045 | 14.44° C | 28% | 1016.4 hPa | 0 mm | - | 1 W/m² | - |
| 1777859742 | 14.44° C | 27% | 1016.4 hPa | 0 mm | - | 1 W/m² | - |
| 1777859438 | 14.44° C | 26% | 1016.3 hPa | 0 mm | - | 2 W/m² | - |
| 1777859134 | 14.44° C | 27% | 1016.3 hPa | 0 mm | - | 3 W/m² | - |
| 1777858831 | 14.44° C | 28% | 1016 hPa | 0 mm | - | 6 W/m² | - |
| 1777858529 | 15° C | 27% | 1015.9 hPa | 0 mm | - | 11 W/m² | - |
| 1777858226 | 15° C | 26% | 1015.9 hPa | 0 mm | - | 17 W/m² | - |
| 1777857924 | 15° C | 27% | 1015.9 hPa | 0 mm | - | 21 W/m² | - |
| 1777857621 | 15.56° C | 25% | 1015.8 hPa | 0 mm | - | 25 W/m² | - |
| 1777857318 | 15.56° C | 27% | 1015.9 hPa | 0 mm | - | 32 W/m² | - |
| 1777857014 | 16.11° C | 25% | 1015.9 hPa | 0 mm | - | 38 W/m² | - |
| 1777856710 | 16.11° C | 24% | 1015.9 hPa | 0 mm | - | 40 W/m² | - |
| 1777856406 | 16.11° C | 24% | 1015.8 hPa | 0 mm | - | 39 W/m² | - |
* Rain latest hour (hover to see other rain measurements)
** Current wind speed in m/s (hover to see current wind gust speed)